Погода в Ламутском

Россия / Чукотский автономный округ     65°32′04″N   168°51′13″E
темп.,
°C
ветер,
м/с
пор.,
м/с
влажн.,
%
обл.,
%
осадки,
мм/ч
давл.,
гПа
погр.,
м
6 марта, сб
сб600:00−29юз4590100 0.2 98697
03:00−28зюз5789100 0.0 988177
06:00−29юз4491100 0.1 98958
09:00−30юз3391100 0.0 99195
12:00−28юз3488100 0.0 992224
15:00−27юз3487100 0.0 992285
18:00−30ююз2388100 0.0 99420
21:00−32ююз3386100 0.0 99520
7 марта, вс
вс700:00−34юз238699 0.0 99619
03:00−35ююз238698 0.0 99819
06:00−37ююз228879 0.0 99919
09:00−36юз118562 0.0 100119
12:00−32юз118031 0.0 1001112
15:00−30ссз11810 0.0 1001139
18:00−35ссв22880 0.0 100119
21:00−34ссв338164 0.0 100021
8 марта, пн
пн800:00−32ссв348582 0.0 99880
03:00−30с4698100 0.3 994256
06:00−29сз3599100 1.4 990262
09:00−29зсз2298100 0.7 988219
12:00−28зсз3693100 1.3 988598
15:00−28сз5892100 0.3 989582
18:00−29сз4891100 0.4 991357
21:00−30зсз4590100 0.1 993143
9 марта, вт
вт900:00−31зсз4587100 0.1 995127
03:00−31зсз4585100 0.0 997134
06:00−31зсз4686100 0.0 998254
09:00−31з4883100 0.0 1000497
12:00−29зсз61175100 0.0 1002838
15:00−27зсз61276100 0.0 1003979
18:00−30зюз3684100 0.0 1006135
21:00−31зюз3483100 0.0 100952
10 марта, ср
ср1000:00−35юз338193 0.0 101120
03:00−36юз238073 0.0 101319
06:00−36юз227981 0.0 101519
09:00−35юз2278100 0.0 101719
12:00−31юз227756 0.0 1018152
15:00−29юз22780 0.0 1019195
18:00−34ююз11880 0.0 102019
21:00−36ююз11880 0.0 102219